DateTimeUTC,F1_A11,F1_S11,BsB_S11,BsG_S11,BsR_S11,BbsB_S11,BbsG_S11,BbsR_S11,BaB_A11,BaG_A11,BaR_A11,T_S11,U_S11,P_S11,T1_A11
2020-04-18T00:00:00Z,00000380,20000600,,,,,,,,,,23.4,03.3,0641.5,30.8
2020-04-18T00:01:00Z,00000380,20000600,,,,,,,,,,23.5,03.3,0641.5,30.8
2020-04-18T00:02:00Z,00000380,20000600,,,,,,,,,,23.5,03.3,0641.5,30.8
2020-04-18T00:03:00Z,00000380,60000600,,,,,,,,,,23.5,03.3,0641.5,30.8
2020-04-18T00:04:00Z,00000380,40000600,0001.20,0000.40,0001.54,-000.56,0000.39,0000.24,0000.24,0000.17,0000.12,23.4,03.5,0642.5,30.8
2020-04-18T00:05:00Z,00000380,00000600,0002.05,0001.28,0000.61,0000.29,0000.23,0000.13,-000.06,-000.02,-000.06,23.3,03.5,0642.7,30.8
2020-04-18T00:06:00Z,00000380,00000600,0000.01,0001.61,0000.40,0000.67,0000.14,0000.14,0000.18,0000.16,0000.08,23.3,03.5,0642.7,30.8
2020-04-18T00:07:00Z,00000380,00000600,0001.40,0001.35,0000.30,-000.16,0000.05,0000.07,-000.08,-000.03,0000.08,23.3,03.5,0642.7,30.8
2020-04-18T00:08:00Z,00000380,00000600,0001.47,0000.86,0000.39,0000.05,0000.02,0000.45,0000.17,0000.10,-000.07,23.3,03.5,0642.7,30.8
2020-04-18T00:09:00Z,00000380,00000600,0000.69,0001.10,0000.45,0000.23,0000.00,0000.40,0000.19,0000.04,0000.13,23.3,03.5,0642.7,30.8
2020-04-18T00:10:00Z,00000380,00000600,0001.05,0001.18,0000.16,-000.24,0000.12,0000.26,0000.02,0000.21,0000.19,23.3,03.5,0642.7,30.8
2020-04-18T00:11:00Z,00000380,00000600,0001.32,0001.33,0000.65,0000.17,-000.02,0000.36,0000.17,-000.01,-000.04,23.3,03.5,0642.8,30.8
2020-04-18T00:12:00Z,00000380,00000600,0000.57,0000.40,0000.50,0000.24,-000.09,0000.05,-000.01,0000.09,0000.07,23.3,03.5,0642.7,30.8
2020-04-18T00:13:00Z,00000380,00000600,0001.65,0000.47,-000.02,-000.39,0000.12,0000.13,0000.04,0000.06,0000.02,23.3,03.5,0642.8,30.8
2020-04-18T00:14:00Z,00000380,00000600,0000.60,0001.11,0000.31,0000.23,-000.24,-000.08,0000.13,0000.13,0000.07,23.3,03.5,0642.9,30.8
2020-04-18T00:15:00Z,00000380,00000600,0001.89,0001.08,0000.20,0000.78,0000.02,0000.31,0000.09,0000.01,0000.01,23.3,03.6,0642.8,30.8
2020-04-18T00:16:00Z,00000380,00000600,0001.34,0000.58,0000.46,-000.45,-000.04,-000.10,0000.13,0000.15,0000.15,23.3,03.5,0642.8,30.8
2020-04-18T00:17:00Z,00000380,00000600,0000.35,0000.52,0000.55,-000.66,-000.12,0000.61,0000.01,-000.08,-000.01,23.2,03.5,0642.7,30.8
2020-04-18T00:18:00Z,00000380,00000600,0001.31,0000.81,0000.15,-000.30,0000.04,0000.49,-000.04,0000.07,0000.02,23.2,03.5,0642.7,30.8
2020-04-18T00:19:00Z,00000380,00000600,0000.19,0000.24,-000.29,-000.01,0000.32,0000.05,0000.17,0000.08,0000.06,23.2,03.5,0642.8,30.8
2020-04-18T00:20:00Z,00000380,00000600,0001.41,0001.11,0000.26,0000.13,-000.08,0000.16,0000.10,0000.09,0000.27,23.2,03.5,0642.7,30.8
2020-04-18T00:21:00Z,00000380,00000600,0000.66,0001.11,0000.68,-000.13,0000.15,0000.32,0000.01,-000.01,-000.24,23.2,03.5,0642.8,30.8
2020-04-18T00:22:00Z,00000380,00000600,0001.32,0000.43,0000.56,0001.29,-000.29,0000.44,-000.02,0000.03,0000.14,23.2,03.5,0642.8,30.8
2020-04-18T00:23:00Z,00000380,00000600,0000.51,0000.62,0000.28,0001.15,0000.19,0000.10,0000.16,0000.17,0000.04,23.2,03.5,0642.9,30.8
2020-04-18T00:24:00Z,00000380,00000600,0001.35,0000.45,0000.06,-000.29,0000.11,0000.13,0000.18,0000.20,0000.16,23.2,03.6,0642.8,30.8
2020-04-18T00:25:00Z,00000380,00000600,0000.31,0000.65,0000.53,-000.25,-000.20,-000.18,0000.14,0000.12,0000.14,23.2,03.6,0642.8,30.8
2020-04-18T00:26:00Z,00000380,00000600,0001.69,0001.03,0000.12,0000.13,-000.21,-000.04,0000.09,0000.11,0000.01,23.2,03.6,0642.8,30.8
2020-04-18T00:27:00Z,00000380,00000600,0000.29,0000.82,0000.24,0000.16,0000.20,0000.36,0000.04,-000.20,0000.01,23.2,03.6,0642.9,30.8
2020-04-18T00:28:00Z,00000380,00000600,0000.53,0000.68,0000.15,0000.63,-000.15,0000.44,0000.08,0000.13,0000.04,23.2,03.6,0642.8,30.8
2020-04-18T00:29:00Z,00000380,00000600,0000.62,0000.83,0000.32,-000.24,0000.31,-000.17,0000.04,0000.02,0000.06,23.2,03.6,0642.9,30.8
2020-04-18T00:30:00Z,00000380,00000600,0000.37,0001.05,0000.50,-000.59,-000.43,0000.32,0000.13,0000.28,0000.12,23.2,03.6,0642.9,30.8
2020-04-18T00:31:00Z,00000380,00000600,0000.30,0000.43,0000.45,0001.14,0000.35,-000.17,0000.15,0000.03,0000.07,23.2,03.6,0642.9,30.8
2020-04-18T00:32:00Z,00000380,00000600,0000.12,0000.38,0000.26,0000.26,-000.20,-000.03,0000.01,-000.21,-000.10,23.2,03.6,0642.9,30.8
2020-04-18T00:33:00Z,00000380,00000600,0002.06,0000.33,0000.45,-000.24,-000.22,0000.33,-000.01,0000.29,0000.12,23.2,03.6,0642.9,30.8
2020-04-18T00:34:00Z,00000380,00000600,0000.68,0000.42,0000.59,0001.15,0000.10,0000.67,0000.19,0000.02,-000.03,23.1,03.6,0643.0,30.8
2020-04-18T00:35:00Z,00000380,00000600,0001.28,0001.17,0000.86,0000.44,-000.15,0000.59,0000.03,0000.06,0000.07,23.2,03.6,0642.9,30.8
2020-04-18T00:36:00Z,00000380,00000600,0000.82,0000.42,0000.00,-000.11,-000.26,0000.20,0000.11,0000.14,0000.15,23.2,03.6,0642.9,30.8
2020-04-18T00:37:00Z,00000380,00000600,0001.47,0000.82,0000.45,0000.65,-000.09,0000.14,0000.06,0000.07,0000.04,23.2,03.6,0642.9,30.8
2020-04-18T00:38:00Z,00000380,00000600,0001.54,0001.16,0000.11,-000.27,0000.17,0000.17,0000.05,0000.09,0000.13,23.2,03.6,0642.8,30.8
2020-04-18T00:39:00Z,00000380,00000600,0000.63,0001.25,0000.29,-000.73,-000.12,-000.01,0000.14,0000.18,0000.02,23.2,03.7,0642.7,30.8
2020-04-18T00:40:00Z,00000380,00000600,0002.40,0000.33,0000.47,-000.53,-000.17,0000.30,-000.06,-000.11,0000.15,23.2,03.7,0642.7,30.8
2020-04-18T00:41:00Z,00000380,00000600,0002.05,0000.95,0000.27,-000.59,-000.18,-000.26,0000.31,0000.23,-000.05,23.1,03.7,0642.7,30.8
2020-04-18T00:42:00Z,00000380,00000600,0001.44,0000.78,0000.44,-000.05,-000.12,0000.43,-000.04,-000.15,0000.11,23.1,03.7,0642.8,30.8
2020-04-18T00:43:00Z,00000380,00000600,0001.52,0000.70,0000.53,-000.92,0000.53,0000.66,-000.02,0000.22,0000.00,23.2,03.6,0642.8,30.8
2020-04-18T00:44:00Z,00000380,00000600,0001.26,0000.69,0001.30,-000.11,0000.18,0000.28,0000.33,0000.18,0000.17,23.2,03.7,0642.9,30.8
2020-04-18T00:45:00Z,00000380,00000600,0001.69,0000.48,0000.18,0000.67,0000.40,-000.04,-000.09,-000.11,0000.06,23.2,03.7,0642.9,30.8
2020-04-18T00:46:00Z,00000380,00000600,-000.00,0001.53,0000.78,-000.11,0000.13,0000.34,0000.12,0000.14,-000.11,23.2,03.6,0642.9,30.8
2020-04-18T00:47:00Z,00000380,00000600,0001.44,0001.96,0000.28,-000.45,-000.09,0000.25,0000.23,0000.11,0000.19,23.2,03.6,0642.8,30.8
2020-04-18T00:48:00Z,00000380,00000600,0001.62,0000.88,0000.86,0000.11,0000.26,0000.06,0000.03,0000.20,0000.03,23.2,03.7,0642.9,30.8
2020-04-18T00:49:00Z,00000380,00000600,0001.23,0001.76,0000.88,-000.44,0000.05,0000.30,0000.28,0000.15,0000.15,23.2,03.6,0642.9,30.8
2020-04-18T00:50:00Z,00000380,00000600,0001.85,0000.86,0000.58,0000.62,-000.12,0000.60,-000.03,-000.04,0000.14,23.2,03.6,0643.0,30.8
2020-04-18T00:51:00Z,00000380,00000600,0001.27,0001.08,0000.71,0000.41,-000.35,-000.04,0000.28,0000.29,0000.10,23.2,03.6,0643.0,30.8
2020-04-18T00:52:00Z,00000380,00000600,0001.59,0001.46,0001.03,0000.62,-000.05,0000.53,-000.05,0000.01,0000.06,23.1,03.7,0643.0,30.8
2020-04-18T00:53:00Z,00000380,00000600,0000.97,0000.94,0001.13,0000.53,0000.27,0000.36,0000.27,0000.08,0000.01,23.1,03.7,0643.0,30.8
2020-04-18T00:54:00Z,00000380,00000600,0001.62,0001.77,0000.56,-000.11,-000.22,0000.34,0000.12,0000.11,0000.13,23.2,03.6,0642.9,30.8
2020-04-18T00:55:00Z,00000380,00000600,0002.15,0001.21,0000.66,-000.10,0000.07,-000.06,0000.08,0000.07,0000.14,23.2,03.7,0642.9,30.8
2020-04-18T00:56:00Z,00000380,00000600,0002.34,0001.44,0000.94,0000.85,0000.05,0000.62,0000.07,0000.16,0000.04,23.1,03.6,0642.9,30.8
2020-04-18T00:57:00Z,00000380,40000600,,,,,,,,,,23.2,03.3,0643.0,30.8
2020-04-18T00:58:00Z,00000380,60000600,,,,,,,,,,23.2,03.7,0642.1,30.8
2020-04-18T00:59:00Z,00000380,20000600,,,,,,,,,,23.3,03.6,0642.0,30.8
2020-04-18T01:00:00Z,00000380,20000600,,,,,,,,,,23.3,03.5,0642.0,30.8
2020-04-18T01:01:00Z,00000380,20000600,,,,,,,,,,23.3,03.5,0642.0,30.8
2020-04-18T01:02:00Z,00000380,20000600,,,,,,,,,,23.3,03.5,0642.0,30.8
2020-04-18T01:03:00Z,00000380,60000600,,,,,,,,,,23.3,03.5,0642.0,30.8
2020-04-18T01:04:00Z,00000380,40000600,0001.38,0000.84,0000.49,0000.04,-000.21,-000.04,0000.17,0000.07,-000.02,23.2,03.7,0643.0,30.8
2020-04-18T01:05:00Z,00000380,00000600,0001.51,0001.50,0000.96,0000.66,0000.25,0000.60,0000.12,0000.04,0000.23,23.1,03.7,0643.1,30.8
2020-04-18T01:06:00Z,00000380,00000600,0000.89,0000.79,0000.92,0000.61,0000.17,0000.54,0000.08,0000.12,-000.01,23.1,03.7,0643.1,30.8
2020-04-18T01:07:00Z,00000380,00000600,0000.95,0001.72,0000.70,0001.06,0000.04,0000.30,0000.33,0000.23,0000.16,23.1,03.7,0642.9,30.8
2020-04-18T01:08:00Z,00000380,00000600,0001.59,0001.74,0000.71,0000.91,0000.35,0000.49,-000.02,0000.11,0000.03,23.1,03.7,0643.0,30.8
2020-04-18T01:09:00Z,00000380,00000600,0002.49,0001.23,0000.42,0000.45,0000.01,0000.27,0000.04,0000.08,0000.26,23.1,03.7,0643.1,30.8
2020-04-18T01:10:00Z,00000380,00000600,0001.94,0000.81,0000.43,0000.55,0000.66,0000.25,0000.31,0000.11,-000.03,23.1,03.7,0643.1,30.8
2020-04-18T01:11:00Z,00000380,00000600,0001.47,0001.24,0000.68,-000.11,0000.15,-000.07,0000.06,0000.12,0000.12,23.1,03.7,0643.0,30.8
2020-04-18T01:12:00Z,00000380,00000600,0002.25,0001.32,0000.11,0001.62,0000.16,0000.05,0000.01,0000.03,0000.13,23.1,03.8,0642.9,30.8
2020-04-18T01:13:00Z,00000380,00000600,0002.67,0001.25,0001.46,0000.38,0000.53,0000.62,0000.07,0000.17,0000.10,23.1,03.8,0642.8,30.8
2020-04-18T01:14:00Z,00000380,00000600,0002.52,0001.25,0001.00,0000.49,0000.54,0000.69,0000.29,0000.24,0000.09,23.1,03.8,0643.0,30.8
2020-04-18T01:15:00Z,00000380,00000600,0002.37,0001.20,0000.62,0000.28,0000.25,-000.12,0000.12,0000.11,0000.10,23.1,03.8,0642.9,30.8
2020-04-18T01:16:00Z,00000380,00000600,0001.70,0000.88,0000.60,0000.33,0000.26,0000.56,0000.14,0000.24,0000.05,23.1,03.8,0643.0,30.8
2020-04-18T01:17:00Z,00000380,00000600,0001.11,0001.37,0000.66,0001.14,0000.18,0000.38,0000.24,-000.03,0000.21,23.0,03.9,0642.9,30.8
2020-04-18T01:18:00Z,00000380,00000600,0000.52,0001.62,0000.55,0000.96,0000.44,0000.06,0000.05,0000.20,0000.00,23.0,03.9,0642.8,30.8
2020-04-18T01:19:00Z,00000380,00000600,0001.08,0001.33,0000.72,0000.30,0000.27,0000.49,0000.26,0000.08,-000.05,23.0,03.9,0642.7,30.8
2020-04-18T01:20:00Z,00000380,00000600,0002.37,0001.27,0000.28,0000.50,0000.03,0000.13,-000.01,0000.09,0000.30,23.0,03.9,0642.9,30.8
2020-04-18T01:21:00Z,00000380,00000600,0003.05,0001.25,0001.04,0001.75,-000.03,0000.14,0000.08,0000.13,-000.04,23.0,03.8,0642.8,30.8
2020-04-18T01:22:00Z,00000380,00000600,0002.12,0001.00,0000.44,0000.80,0000.26,0000.24,0000.22,0000.04,0000.07,23.0,03.9,0642.8,30.8
2020-04-18T01:23:00Z,00000380,00000600,0001.11,0001.12,0000.59,0000.64,0000.00,0000.29,-000.08,0000.06,0000.16,23.0,03.9,0642.9,30.8
2020-04-18T01:24:00Z,00000380,00000600,0002.68,0001.10,0000.72,0001.29,-000.08,0000.13,0000.13,0000.15,-000.03,23.0,03.9,0643.0,30.8
2020-04-18T01:25:00Z,00000380,00000600,0002.12,0000.95,0000.56,0000.64,-000.03,0000.04,0000.29,0000.21,0000.21,23.0,03.9,0643.0,30.8
2020-04-18T01:26:00Z,00000380,00000600,0002.96,0001.23,0001.07,0001.20,0000.11,0000.20,-000.04,-000.17,0000.01,23.0,03.8,0643.2,30.8
2020-04-18T01:27:00Z,00000380,00000600,0002.30,0000.94,0000.90,0000.11,0000.44,0000.16,0000.28,0000.41,0000.10,23.0,03.9,0643.0,30.8
2020-04-18T01:28:00Z,00000380,00000600,0001.51,0001.34,0000.77,0000.84,0000.32,0000.05,-000.03,-000.03,-000.07,23.0,03.9,0642.9,30.8
2020-04-18T01:29:00Z,00000380,00000600,0002.63,0001.51,0000.16,0001.01,0000.57,0000.01,0000.15,0000.28,0000.17,23.0,03.8,0642.9,30.8
2020-04-18T01:30:00Z,00000380,00000600,0001.85,0001.32,0000.66,0000.18,0000.36,-000.03,0000.16,0000.05,0000.05,23.0,03.9,0643.0,30.8
2020-04-18T01:31:00Z,00000380,00000600,0002.46,0000.76,0001.19,0000.67,0000.09,0000.53,0000.20,-000.00,0000.15,23.0,03.9,0642.9,30.8
2020-04-18T01:32:00Z,00000380,00000600,0001.84,0001.69,0000.54,0000.70,0000.76,0000.03,0000.02,0000.12,0000.02,23.0,03.9,0643.1,30.8
2020-04-18T01:33:00Z,00000380,00000600,0002.64,0001.69,0000.88,0001.45,0000.17,0000.14,0000.13,0000.26,0000.15,23.0,03.8,0642.9,30.8
2020-04-18T01:34:00Z,00000380,00000600,0001.02,0001.11,0001.22,0000.85,-000.17,0000.28,0000.07,-000.09,0000.08,23.0,03.8,0642.8,30.8
2020-04-18T01:35:00Z,00000380,00000600,0002.28,0001.57,0000.65,0001.52,0000.60,0000.66,0000.08,0000.04,0000.08,23.0,03.8,0642.8,30.8
2020-04-18T01:36:00Z,00000380,00000600,0001.65,0001.38,0000.43,0000.93,0000.28,0000.10,0000.24,0000.22,0000.04,23.0,03.8,0642.7,30.8
2020-04-18T01:37:00Z,00000380,00000600,0003.24,0001.39,0000.55,0001.55,0000.40,0000.24,-000.01,0000.14,0000.09,23.0,03.9,0642.9,30.8
2020-04-18T01:38:00Z,00000380,00000600,0002.50,0001.01,0000.14,0000.59,0000.50,-000.06,0000.15,0000.13,0000.20,23.0,03.7,0642.8,30.8
2020-04-18T01:39:00Z,00000380,00000600,0002.14,0001.68,0001.87,0000.44,0000.04,0000.41,0000.25,0000.22,0000.12,23.0,03.8,0642.9,30.8
2020-04-18T01:40:00Z,00000380,00000600,0002.48,0001.17,0000.90,0000.99,0000.79,0000.47,-000.01,-000.02,0000.01,23.0,03.7,0643.1,30.8
2020-04-18T01:41:00Z,00000380,00000600,0001.55,0000.99,0000.62,0000.98,0000.12,0000.16,0000.14,0000.09,0000.15,23.0,03.7,0643.0,30.8
2020-04-18T01:42:00Z,00000380,00000600,0002.38,0001.47,0000.59,0001.31,0000.28,0000.54,0000.13,0000.07,0000.00,23.0,03.8,0643.0,30.8
2020-04-18T01:43:00Z,00000380,00000600,0001.98,0001.52,0000.38,0000.43,0000.39,0000.04,0000.13,0000.14,0000.09,23.1,03.6,0643.0,30.8
2020-04-18T01:44:00Z,00000380,00000600,0002.19,0001.18,0000.26,0000.13,0000.44,0000.19,0000.04,0000.16,0000.02,23.0,03.7,0643.0,30.8
2020-04-18T01:45:00Z,00000380,00000600,0003.24,0001.66,0000.92,0000.62,0000.51,0000.16,0000.10,0000.01,0000.03,23.0,03.7,0643.1,30.8
2020-04-18T01:46:00Z,00000380,00000600,0002.79,0001.29,0000.20,0001.91,0000.05,-000.19,0000.19,0000.20,0000.13,23.1,03.7,0642.9,30.8
2020-04-18T01:47:00Z,00000380,00000600,0003.58,0000.99,0000.63,0000.88,0000.47,0000.32,0000.21,0000.07,0000.05,23.0,03.7,0643.0,30.8
2020-04-18T01:48:00Z,00000380,00000600,0001.72,0001.26,0000.92,0000.93,0000.51,0000.32,0000.06,0000.25,0000.27,23.0,03.7,0642.9,30.8
2020-04-18T01:49:00Z,00000380,00000600,0002.08,0001.59,0001.20,0000.43,0000.47,0000.35,0000.15,0000.03,-000.07,23.1,03.7,0642.9,30.8
2020-04-18T01:50:00Z,00000380,00000600,0002.91,0001.61,0000.36,0001.17,0000.44,0000.21,0000.06,0000.18,0000.04,23.1,03.7,0642.9,30.8
2020-04-18T01:51:00Z,00000380,00000600,0003.87,0001.72,0000.74,0000.58,0000.80,0000.80,-000.01,0000.01,0000.17,23.1,03.6,0642.9,30.8
2020-04-18T01:52:00Z,00000380,00000600,0002.00,0000.98,0000.63,0000.51,-000.03,-000.14,0000.21,0000.10,0000.13,23.1,03.6,0642.8,30.8
2020-04-18T01:53:00Z,00000380,00000600,0002.51,0001.57,0001.19,0000.28,0000.14,0000.23,0000.23,0000.19,-000.00,23.1,03.6,0642.7,30.8
2020-04-18T01:54:00Z,00000380,00000600,0001.79,0002.21,0001.36,0000.37,0000.33,0000.42,-000.01,0000.05,0000.05,23.1,03.6,0642.7,30.8
2020-04-18T01:55:00Z,00000380,00000600,0002.85,0001.76,0000.54,0001.13,0000.21,0000.54,0000.12,-000.00,0000.06,23.1,03.6,0642.9,30.8
2020-04-18T01:56:00Z,00000380,00000600,0002.26,0001.59,0000.80,0000.30,0000.35,0000.27,0000.05,0000.16,0000.18,23.1,03.6,0642.9,30.8
2020-04-18T01:57:00Z,00000380,40000600,,,,,,,,,,23.1,03.7,0642.7,30.8
2020-04-18T01:58:00Z,00000380,60000600,,,,,,,,,,23.2,03.5,0642.0,30.8
2020-04-18T01:59:00Z,00000380,20000600,,,,,,,,,,23.3,03.5,0642.0,30.8
2020-04-18T02:00:00Z,00000380,20000600,,,,,,,,,,23.3,03.5,0642.0,30.8
2020-04-18T02:01:00Z,00000380,20000600,,,,,,,,,,23.3,03.4,0641.9,30.8
2020-04-18T02:02:00Z,00000380,20000600,,,,,,,,,,23.3,03.3,0641.9,30.8
2020-04-18T02:03:00Z,00000380,60000600,,,,,,,,,,23.3,03.3,0641.9,30.8
2020-04-18T02:04:00Z,00000380,40000600,0002.46,0002.12,0000.91,-000.38,0000.00,0000.09,0000.25,0000.18,0000.27,23.2,03.5,0642.7,30.8
2020-04-18T02:05:00Z,00000380,00000600,0000.71,0000.94,0001.31,-000.05,0000.36,0000.18,0000.10,0000.15,-000.02,23.2,03.5,0642.9,30.8
2020-04-18T02:06:00Z,00000380,00000600,0001.82,0001.47,0001.34,0000.67,0000.49,0000.41,0000.15,0000.08,0000.17,23.1,03.6,0642.9,30.8
2020-04-18T02:07:00Z,00000380,00000600,0002.66,0001.37,0000.80,0000.33,0000.43,0000.28,0000.21,0000.28,0000.04,23.1,03.5,0643.1,30.8
2020-04-18T02:08:00Z,00000380,00000600,0002.90,0001.76,0000.69,-000.58,-000.04,0000.12,0000.14,0000.05,0000.09,23.1,03.5,0643.0,30.8
2020-04-18T02:09:00Z,00000380,00000600,0002.55,0001.54,0001.13,-000.11,-000.13,0000.34,-000.04,0000.04,0000.10,23.1,03.5,0642.8,30.8
2020-04-18T02:10:00Z,00000380,00000600,0002.82,0001.26,0000.93,-000.05,-000.22,-000.01,0000.20,0000.18,0000.04,23.1,03.5,0642.9,30.8
2020-04-18T02:11:00Z,00000380,00000600,0002.49,0001.65,0000.74,0000.49,0000.19,0000.01,0000.10,0000.13,0000.15,23.1,03.5,0642.8,30.8
2020-04-18T02:12:00Z,00000380,00000600,0001.20,0001.98,0000.78,-000.59,0000.19,-000.40,0000.18,0000.10,0000.06,23.1,03.4,0642.8,30.8
2020-04-18T02:13:00Z,00000380,00000600,0002.61,0001.36,0001.04,0000.68,0000.34,0000.43,0000.11,0000.23,0000.13,23.0,03.5,0642.8,30.8
2020-04-18T02:14:00Z,00000380,00000600,0002.67,0001.49,0001.20,-000.49,0000.31,0000.35,0000.04,-000.09,-000.06,23.1,03.5,0642.9,30.8
2020-04-18T02:15:00Z,00000380,00000600,0002.42,0001.43,0001.10,-000.48,0000.35,0000.28,0000.24,0000.22,0000.12,23.1,03.5,0642.8,30.8
2020-04-18T02:16:00Z,00000380,00000600,0001.94,0000.56,0001.31,-000.64,0000.66,0000.51,0000.20,0000.01,0000.20,23.0,03.5,0642.8,30.8
2020-04-18T02:17:00Z,00000380,00000600,0001.14,0001.69,0000.54,-000.21,0000.37,0000.24,-000.02,0000.04,-000.00,23.0,03.5,0642.7,30.8
2020-04-18T02:18:00Z,00000380,00000600,0001.89,0001.20,0000.85,0000.86,0000.14,-000.24,0000.21,0000.27,0000.11,23.0,03.5,0642.9,30.8
2020-04-18T02:19:00Z,00000380,00000600,0001.97,0001.87,0000.88,0000.03,0000.21,-000.14,0000.09,0000.12,0000.03,23.0,03.5,0642.7,30.8
2020-04-18T02:20:00Z,00000380,00000600,0002.12,0001.59,0000.99,-000.72,0000.43,0000.62,0000.20,0000.11,-000.03,23.0,03.4,0642.8,30.8
2020-04-18T02:21:00Z,00000380,00000600,0002.77,0001.67,0000.47,-000.22,0000.14,0000.15,0000.13,0000.15,0000.30,23.0,03.4,0642.7,30.8
2020-04-18T02:22:00Z,00000380,00000600,0002.11,0001.08,0000.95,-000.35,0000.10,0000.05,0000.11,-000.02,-000.09,23.0,03.5,0642.9,30.8
2020-04-18T02:23:00Z,00000380,00000600,0001.40,0001.48,0000.53,0000.60,0000.05,0000.55,0000.10,0000.21,0000.19,23.0,03.4,0642.8,30.8
2020-04-18T02:24:00Z,00000380,00000600,0001.57,0001.36,0001.22,-000.94,-000.02,-000.02,0000.13,0000.12,0000.00,23.0,03.4,0642.8,30.8
2020-04-18T02:25:00Z,00000380,00000600,0002.64,0001.16,0000.94,0000.29,0000.11,0000.10,0000.08,0000.16,0000.15,23.0,03.4,0642.8,30.8
2020-04-18T02:26:00Z,00000380,00000600,0002.16,0001.08,0000.98,0000.72,0000.32,-000.10,0000.09,-000.04,0000.14,23.0,03.4,0642.8,30.8
2020-04-18T02:27:00Z,00000380,00000600,0002.05,0001.91,0000.60,0000.84,0000.37,0000.43,0000.13,0000.19,-000.02,23.0,03.4,0642.8,30.8
2020-04-18T02:28:00Z,00000380,00000600,0001.62,0001.57,0000.75,-000.02,0000.15,-000.13,0000.23,0000.14,0000.20,23.0,03.4,0642.8,30.8
2020-04-18T02:29:00Z,00000380,00000600,0002.43,0001.14,0000.67,-000.11,0000.03,0000.20,-000.00,-000.07,-000.04,23.0,03.4,0642.7,30.8
2020-04-18T02:30:00Z,00000380,00000600,0001.10,0001.76,0000.54,0000.31,0000.01,0000.23,0000.11,0000.24,0000.04,22.9,03.5,0642.9,30.8
2020-04-18T02:31:00Z,00000380,00000600,0001.67,0001.23,0000.74,-000.07,0000.19,0000.06,0000.17,0000.00,0000.21,22.9,03.4,0642.8,30.8
2020-04-18T02:32:00Z,00000380,00000600,0002.51,0001.30,0000.72,-000.94,-000.01,-000.32,-000.01,0000.19,-000.04,22.9,03.4,0642.7,30.8
2020-04-18T02:33:00Z,00000380,00000600,0002.69,0001.18,0000.54,-000.14,0000.09,-000.26,0000.18,-000.00,0000.11,22.9,03.4,0642.8,30.8
2020-04-18T02:34:00Z,00000380,00000600,0002.23,0001.35,0000.82,-000.41,0000.09,0000.28,0000.07,0000.01,0000.04,22.9,03.4,0642.7,30.8
2020-04-18T02:35:00Z,00000380,00000600,0000.68,0000.73,0000.50,0000.37,-000.26,0000.18,0000.13,0000.32,0000.13,22.9,03.4,0642.7,30.8
2020-04-18T02:36:00Z,00000380,00000600,0002.29,0001.39,0000.73,0000.03,0000.02,0000.32,0000.22,0000.05,0000.08,22.9,03.3,0642.8,30.8
2020-04-18T02:37:00Z,00000380,00000600,0001.40,0000.64,0000.51,-000.32,0000.13,-000.16,0000.05,0000.02,0000.04,22.9,03.4,0642.9,30.8
2020-04-18T02:38:00Z,00000380,00000600,0002.62,0001.33,0000.36,-000.97,-000.15,0000.14,0000.10,0000.23,0000.12,22.9,03.4,0642.8,30.8
2020-04-18T02:39:00Z,00000380,00000600,0001.66,0000.96,0000.56,-000.21,0000.59,0000.23,0000.14,0000.03,0000.05,22.9,03.4,0642.7,30.8
2020-04-18T02:40:00Z,00000380,00000600,0002.43,0000.76,0000.64,0000.13,-000.05,0000.16,0000.02,0000.13,0000.05,22.9,03.4,0642.7,30.8
2020-04-18T02:41:00Z,00000380,00000600,0002.43,0001.07,0000.21,-000.53,0000.17,0000.10,0000.19,-000.04,0000.07,22.9,03.3,0642.5,30.8
2020-04-18T02:42:00Z,00000380,00000600,0002.21,0001.23,0001.01,0000.35,0000.39,0000.35,0000.07,0000.19,0000.04,22.9,03.3,0642.4,30.8
2020-04-18T02:43:00Z,00000380,00000600,0001.78,0001.31,0000.97,0000.08,0000.07,0000.27,0000.00,0000.06,0000.13,22.9,03.3,0642.3,30.8
2020-04-18T02:44:00Z,00000380,00000600,0000.76,0001.45,0000.23,0000.85,0000.27,-000.10,0000.15,0000.10,0000.01,22.9,03.3,0642.4,30.8
2020-04-18T02:45:00Z,00000380,00000600,0001.85,0001.13,0000.63,0000.61,0000.14,0000.11,0000.09,0000.08,0000.03,22.9,03.2,0642.5,30.8
2020-04-18T02:46:00Z,00000380,00000600,0001.96,0001.32,0000.13,-000.78,0000.08,-000.26,-000.08,-000.08,0000.06,22.9,03.2,0642.4,30.8
2020-04-18T02:47:00Z,00000380,00000600,0002.51,0001.51,0000.66,0000.59,0000.24,-000.01,0000.25,0000.16,0000.04,22.9,03.3,0642.4,30.8
2020-04-18T02:48:00Z,00000380,00000600,0000.78,0001.24,0000.43,-000.52,0000.09,-000.14,0000.11,0000.17,0000.14,22.9,03.2,0642.3,30.8
2020-04-18T02:49:00Z,00000380,00000600,0000.56,0001.12,0000.97,0000.47,-000.19,-000.07,0000.00,0000.03,0000.12,22.9,03.3,0642.4,30.8
2020-04-18T02:50:00Z,00000380,00000600,0001.59,0000.96,0000.92,0000.43,0000.20,0000.47,0000.17,0000.29,-000.06,22.9,03.3,0642.3,30.8
2020-04-18T02:51:00Z,00000380,00000600,0002.32,0000.73,0000.49,-000.58,0000.07,-000.18,0000.11,-000.08,0000.16,22.9,03.3,0642.2,30.8
2020-04-18T02:52:00Z,00000380,00000600,0002.46,0001.25,0000.61,-000.35,0000.23,0000.39,0000.19,0000.25,0000.12,22.9,03.3,0642.3,30.8
2020-04-18T02:53:00Z,00000380,00000600,0000.89,0000.59,0000.41,-000.04,0000.12,0000.37,0000.13,-000.02,-000.02,22.9,03.3,0642.3,30.8
2020-04-18T02:54:00Z,00000380,00000600,0001.86,0001.62,0000.72,0000.54,0000.78,-000.13,-000.04,0000.21,0000.23,22.9,03.4,0642.4,30.8
2020-04-18T02:55:00Z,00000380,00000600,0001.67,0001.30,0001.57,0000.84,-000.25,0000.08,0000.19,0000.03,-000.01,22.9,03.4,0642.4,30.8
2020-04-18T02:56:00Z,00000380,00000600,0002.13,0001.30,0000.45,-000.11,0000.27,0000.34,0000.16,0000.18,0000.09,22.8,03.3,0642.3,30.7
2020-04-18T02:57:00Z,00000380,40000600,,,,,,,,,,22.8,03.3,0642.2,30.8
2020-04-18T02:58:00Z,00000380,60000600,,,,,,,,,,22.9,03.3,0641.4,30.8
2020-04-18T02:59:00Z,00000380,20000600,,,,,,,,,,23.0,03.2,0641.4,30.8
2020-04-18T03:00:00Z,00000380,20000600,,,,,,,,,,23.0,03.2,0641.3,30.8
2020-04-18T03:01:00Z,00000380,20000600,,,,,,,,,,23.0,03.2,0641.4,30.7
2020-04-18T03:02:00Z,00000380,20000600,,,,,,,,,,23.0,03.2,0641.4,30.7
2020-04-18T03:03:00Z,00000380,60000600,,,,,,,,,,23.0,03.2,0641.4,30.7
2020-04-18T03:04:00Z,00000380,40000600,0003.20,0001.40,0000.56,-000.17,0000.14,0000.01,0000.02,0000.12,0000.13,22.9,03.4,0642.2,30.7
2020-04-18T03:05:00Z,00000380,00000600,0001.32,0001.82,0000.63,0000.03,0000.28,0000.25,0000.01,-000.02,0000.07,22.8,03.4,0642.4,30.7
2020-04-18T03:06:00Z,00000380,00000600,0001.75,0001.50,0000.25,0000.49,0000.26,0000.14,0000.10,0000.28,0000.05,22.8,03.4,0642.3,30.7
2020-04-18T03:07:00Z,00000380,00000600,0002.47,0001.58,0001.13,0000.06,0000.35,-000.04,0000.08,-000.01,0000.07,22.8,03.4,0642.2,30.7
2020-04-18T03:08:00Z,00000380,00000600,0000.03,0001.24,0000.56,-000.04,0000.29,-000.13,-000.01,0000.07,0000.10,22.8,03.5,0642.3,30.7
2020-04-18T03:09:00Z,00000380,00000600,0000.67,0001.04,0000.20,-000.66,0000.83,-000.08,0000.09,-000.08,-000.16,22.8,03.4,0642.3,30.7
2020-04-18T03:10:00Z,00000380,00000600,0002.17,0000.71,0000.33,0000.02,-000.09,0000.12,0000.10,-000.00,0000.14,22.8,03.4,0642.3,30.8